Home   Weather   Adelaide   Past weeks
Flag for Australia

Past Weather in Adelaide, South Australia, Australia — Yesterday and Last 2 Weeks

Now
53 °F

Cool.


Feels Like: 50 °F
Forecast: 58 / 43 °F
Wind: 7 mph from Southwest

Location: Adelaide

Current Time: Sep 23, 2019 at 9:05:13 pm

Latest Report: Sep 23, 2019 at 7:30 pm


Visibility: N/A

Pressure: 30.47 "Hg

Humidity: 78%

Dew Point: 46 °F

Location of AdelaideLocation

Past Weather in Adelaide — Graph

°F

Adelaide Temperature Yesterday

Maximum temperature yesterday: 60 °F (at 3:00 pm)
Minimum temperature yesterday: 46 °F (at 5:30 am)
Average temperature yesterday: 52 °F

High & Low Weather Summary for the Past Weeks

 TemperatureHumidityPressure
High84 °F (Sep 19, 3:00 pm)96% (Sep 13, 7:30 am)30.45 "Hg (Sep 13, 7:30 am)
Low39 °F (Sep 10, 6:00 am)10% (Sep 19, 3:00 pm)29.74 "Hg (Sep 19, 4:30 pm)
Average58 °F56%30.23 "Hg
* Reported Sep 8 5:30 pm — Sep 23 6:00 pm, Adelaide. Weather by CustomWeather, © 2019

Note: Actual official high and low records may vary slightly from our data, if they occured in-between our weather recording intervals... More about our weather records

Advertising

Adelaide Weather History for the Previous 24 Hours

Scroll right to see more
 ConditionsComfort  
Time TempWeatherWind HumidityBarometerVisibility
6:00 pm
Mon, Sep 23
55 °FRefreshingly cool.7 mph55%30.45 "HgN/A
5:30 pm56 °FRefreshingly cool.8 mph51%30.44 "HgN/A
4:30 pm58 °FRefreshingly cool.7 mph43%30.42 "HgN/A
3:00 pm59 °FRefreshingly cool.7 mph44%30.42 "HgN/A
2:30 pm59 °FRefreshingly cool.9 mph44%30.43 "HgN/A
1:30 pm59 °FRefreshingly cool.10 mph44%30.43 "HgN/A
12:00 pm58 °FRefreshingly cool.7 mph48%30.44 "HgN/A
11:30 am57 °FRefreshingly cool.7 mph52%30.45 "HgN/A
10:30 am58 °FRefreshingly cool.8 mph49%30.45 "HgN/A
9:00 am56 °FRefreshingly cool.8 mph57%30.44 "HgN/A
8:30 am55 °FCool.8 mph61%30.44 "HgN/A
7:30 am54 °FCool.No wind68%30.43 "HgN/A
5:30 am49 °FCool.2 mph82%30.39 "HgN/A
4:30 am51 °FCool.5 mph71%30.37 "HgN/A
3:00 am51 °FCool.6 mph67%30.34 "HgN/A
1:30 am51 °FCool.8 mph69%30.33 "HgN/A
11:30 pm
Sun, Sep 22
52 °FCool.8 mph72%30.33 "HgN/A
10:30 pm50 °FCool.6 mph87%30.33 "HgN/A
9:00 pm52 °FCool.10 mph83%30.31 "HgN/A
Weather by CustomWeather, © 2019

See weather overview